TimeEST,TemperatureF,Dew PointF,Humidity,Sea Level PressureIn,VisibilityMPH,Wind Direction,Wind SpeedMPH,Gust SpeedMPH,PrecipitationIn,Events,Conditions,WindDirDegrees,DateUTC
12:53 AM,18.0,9.0,68,30.35,10.0,Calm,Calm,-,N/A,,Clear,0,2013-02-07 05:53:00
1:53 AM,16.0,10.0,77,30.38,10.0,Calm,Calm,-,N/A,,Clear,0,2013-02-07 06:53:00
2:53 AM,15.1,9.0,77,30.39,10.0,Calm,Calm,-,N/A,,Clear,0,2013-02-07 07:53:00
3:53 AM,15.1,9.0,77,30.40,10.0,Calm,Calm,-,N/A,,Clear,0,2013-02-07 08:53:00
4:53 AM,15.1,9.0,77,30.42,9.0,SSE,3.5,-,N/A,,Clear,150,2013-02-07 09:53:00
5:53 AM,16.0,9.0,74,30.43,10.0,Calm,Calm,-,N/A,,Clear,0,2013-02-07 10:53:00
6:53 AM,16.0,9.0,74,30.44,10.0,Calm,Calm,-,N/A,,Clear,0,2013-02-07 11:53:00
7:53 AM,17.1,10.9,77,30.48,10.0,Calm,Calm,-,N/A,,Scattered Clouds,0,2013-02-07 12:53:00
8:53 AM,19.9,10.9,68,30.49,10.0,Calm,Calm,-,N/A,,Clear,0,2013-02-07 13:53:00
9:53 AM,23.0,10.0,58,30.50,10.0,Calm,Calm,-,N/A,,Clear,0,2013-02-07 14:53:00
10:53 AM,24.1,9.0,53,30.49,10.0,Calm,Calm,-,N/A,,Mostly Cloudy,0,2013-02-07 15:53:00
11:53 AM,26.1,10.9,53,30.47,10.0,NE,4.6,-,N/A,,Mostly Cloudy,50,2013-02-07 16:53:00
12:53 PM,28.0,10.9,49,30.45,10.0,North,3.5,-,N/A,,Partly Cloudy,10,2013-02-07 17:53:00
1:53 PM,28.9,12.9,51,30.43,10.0,NE,5.8,-,N/A,,Overcast,50,2013-02-07 18:53:00
2:53 PM,30.0,10.9,45,30.42,10.0,NNE,4.6,-,N/A,,Clear,20,2013-02-07 19:53:00
3:53 PM,30.0,12.0,47,30.40,10.0,NE,4.6,-,N/A,,Overcast,40,2013-02-07 20:53:00
4:53 PM,30.0,12.0,47,30.39,10.0,Calm,Calm,-,N/A,,Overcast,0,2013-02-07 21:53:00
5:53 PM,28.0,9.0,45,30.40,10.0,SE,3.5,-,N/A,,Partly Cloudy,130,2013-02-07 22:53:00
6:53 PM,25.0,10.9,55,30.40,10.0,Calm,Calm,-,N/A,,Partly Cloudy,0,2013-02-07 23:53:00
7:53 PM,23.0,15.1,72,30.40,10.0,Calm,Calm,-,N/A,,Overcast,0,2013-02-08 00:53:00
8:53 PM,23.0,15.1,72,30.40,10.0,Calm,Calm,-,N/A,,Overcast,0,2013-02-08 01:53:00
9:53 PM,25.0,15.1,66,30.39,10.0,Calm,Calm,-,N/A,,Overcast,0,2013-02-08 02:53:00
10:53 PM,27.0,12.9,56,30.36,10.0,NNE,5.8,-,N/A,,Overcast,20,2013-02-08 03:53:00
11:53 PM,27.0,14.0,58,30.32,10.0,NNE,6.9,-,N/A,,Overcast,20,2013-02-08 04:53:00